GFSGL_925_spd_162.txt.gz
Wind_Speed
30 29 28 26 24 22 22 21 20 19 17 17 17 19 17 17 15 15 14 14 15 13 14 15 17 17 21 23 23 19 16 15 9 25 27 32 32 32 31 30 31 31 28
29 28 26 24 21 21 20 19 18 19 16 15 18 17 18 17 16 16 14 12 13 15 15 15 17 19 20 21 19 19 18 17 16 19 25 30 32 33 32 33 28 28 28
28 27 25 23 21 21 19 19 18 16 15 15 16 18 17 17 15 14 12 12 13 13 14 15 18 19 20 21 18 18 20 19 18 18 23 25 28 29 31 30 30 27 25
28 27 25 22 20 20 20 19 17 15 16 15 15 16 17 15 16 16 15 14 14 14 15 15 15 18 18 18 17 17 17 20 20 19 20 22 23 30 26 27 29 28 26
27 24 22 19 18 17 16 17 16 15 15 14 14 16 16 16 16 15 16 15 15 15 14 13 13 15 19 20 18 18 17 19 19 19 17 18 20 27 24 24 22 24 22
26 23 19 18 17 16 16 16 15 14 14 14 16 15 15 17 16 14 14 14 14 14 15 14 15 18 21 22 20 19 19 18 17 17 13 17 19 21 23 22 21 19 5
22 18 15 14 15 15 15 14 14 13 11 13 14 14 16 16 13 12 13 13 11 11 12 15 16 17 23 25 26 25 25 21 18 18 19 21 19 23 22 22 22 20 16
20 16 13 14 14 13 12 13 13 11 9 11 12 13 15 15 12 11 9 10 11 12 14 15 17 20 22 25 26 28 27 24 21 20 20 21 22 23 22 22 22 21 22
18 15 14 14 14 13 13 13 11 10 12 11 11 11 12 13 10 9 7 9 12 14 14 15 18 20 21 21 23 26 27 29 25 23 19 19 18 19 22 23 21 17 10
18 16 17 15 15 14 14 15 15 14 12 10 9 10 10 12 9 10 10 9 12 16 17 19 21 21 19 18 19 21 21 25 27 29 29 28 26 25 26 24 22 14 11
19 20 19 16 14 16 15 13 10 9 8 8 8 9 11 12 12 12 11 13 15 18 21 23 22 20 16 15 16 19 18 21 23 24 25 28 31 30 31 29 22 16 13
22 22 18 16 15 13 11 10 8 8 9 9 7 10 13 11 13 14 13 14 15 18 20 20 18 17 16 16 19 20 22 23 22 26 24 28 30 32 32 30 22 15 12
20 18 16 15 15 13 12 12 11 9 10 10 10 12 13 13 13 13 13 14 15 16 16 15 17 19 20 20 23 23 26 26 24 23 24 26 28 29 30 32 30 23 16
20 17 16 18 16 14 14 13 12 11 10 9 11 13 12 12 14 15 17 16 16 16 16 19 21 24 26 26 27 27 26 24 20 20 22 24 28 32 31 31 23 27 21
19 16 17 17 15 14 14 13 12 12 11 8 9 10 11 13 15 15 16 19 16 16 17 23 27 28 30 30 29 28 26 24 23 22 24 28 28 31 31 29 28 22 15
17 15 15 15 13 12 12 11 9 8 7 8 8 9 11 11 10 11 13 15 16 17 23 22 20 20 20 21 22 22 23 27 25 23 23 22 25 25 28 27 28 26 22
15 14 13 11 11 11 8 6 5 4 5 7 7 10 10 9 10 10 11 16 20 21 25 19 18 18 19 19 19 19 21 23 23 22 22 22 22 22 24 24 26 24 24
13 11 10 8 11 10 6 3 2 3 4 6 8 8 8 9 12 13 12 14 22 25 22 19 18 19 20 21 21 21 23 27 27 26 24 22 21 22 23 24 23 24 22
10 9 9 11 12 8 6 4 3 3 5 7 8 8 10 10 13 16 17 21 20 20 20 20 20 20 20 20 21 21 22 25 26 25 26 26 26 24 23 22 21 24 25
7 6 9 12 11 8 5 3 5 5 6 8 8 8 9 8 15 18 19 19 19 19 18 19 20 21 22 23 23 23 23 25 27 27 26 25 26 24 24 24 24 22 22
8 9 12 11 8 5 3 6 6 8 9 7 6 7 8 10 14 15 17 17 18 18 18 19 21 22 23 23 23 22 23 23 25 27 27 27 25 25 24 23 23 23 21
9 12 11 8 5 3 6 7 8 8 7 7 9 12 11 12 13 14 15 15 16 17 16 17 20 22 23 24 24 23 22 23 25 26 26 25 24 23 23 24 25 24 23
10 11 9 7 5 3 6 6 7 5 6 9 12 14 11 11 11 12 12 13 14 15 16 17 19 20 22 23 24 24 22 22 22 22 23 22 21 23 21 23 24 26 26
9 10 10 8 5 5 5 6 6 5 9 12 15 10 11 10 9 8 8 10 12 13 14 16 18 19 21 22 23 23 22 19 19 19 20 20 20 21 20 21 22 24 24
9 11 10 8 8 5 6 8 8 12 14 13 12 13 12 9 7 6 7 9 10 11 14 16 18 19 20 22 23 22 20 19 18 18 19 20 21 21 19 19 20 21 23
9 10 8 7 7 7 12 12 14 17 17 15 13 9 8 7 5 6 6 7 9 11 13 15 16 17 19 21 22 22 21 20 19 18 20 21 21 20 19 19 20 19 20

GFSGL_925_spd_165.txt.gz
Wind_Speed
24 22 21 18 18 17 16 15 14 13 10 10 9 11 9 11 10 8 8 6 5 9 8 9 11 11 10 11 11 11 12 14 13 24 24 28 29 30 33 32 28 28 27
23 23 21 19 18 17 16 15 13 12 10 10 10 9 9 7 6 6 7 6 8 9 9 10 11 10 12 12 13 15 15 16 18 22 27 27 27 27 29 28 30 27 27
23 23 21 19 18 17 17 15 13 12 11 10 9 9 9 9 9 9 8 8 9 8 9 9 11 12 14 15 15 16 16 17 18 19 23 24 24 26 26 27 30 28 27
22 22 20 19 18 18 16 14 13 11 11 9 11 11 9 10 10 10 9 7 7 8 9 10 11 14 15 16 15 16 17 18 19 18 20 21 21 26 26 26 26 28 29
22 22 19 19 17 16 14 13 11 11 10 9 10 11 10 11 9 8 6 6 9 10 10 10 10 13 15 14 14 16 17 16 17 17 17 17 19 24 22 25 23 24 26
21 21 19 18 16 15 13 12 12 11 10 11 11 11 11 11 10 9 7 8 9 11 11 11 10 12 16 18 18 15 12 13 15 15 13 18 19 24 24 23 22 21 7
21 19 17 17 17 15 13 12 11 10 10 11 11 11 12 10 9 9 11 9 10 11 11 12 13 14 17 18 18 17 13 14 13 13 15 17 20 24 26 25 24 23 18
20 17 16 16 16 14 12 12 10 9 10 10 10 10 11 11 8 8 10 9 9 10 11 12 14 16 18 21 16 15 15 14 14 13 14 17 18 22 24 23 24 23 20
18 16 16 15 14 13 12 10 8 9 9 9 8 10 9 9 10 9 9 8 9 10 10 11 16 15 18 19 15 17 16 16 17 19 19 20 22 24 23 25 20 16 14
16 16 15 13 13 12 10 10 9 9 9 8 8 10 11 9 10 9 8 8 10 11 10 10 15 17 15 16 13 16 17 20 22 23 21 19 19 20 25 26 23 15 11
15 16 14 13 13 13 12 10 8 7 7 7 7 8 9 12 11 10 11 9 10 10 11 13 13 14 12 14 15 14 15 16 17 16 17 18 20 22 25 28 25 19 16
16 15 14 13 11 8 8 7 6 6 7 6 6 6 8 8 10 10 12 13 12 9 11 11 11 12 11 17 16 16 18 15 14 16 17 20 22 24 27 29 22 26 16
16 13 12 11 10 8 7 8 7 6 6 6 5 4 6 6 6 10 12 12 12 10 9 10 12 16 17 15 22 23 19 17 17 18 19 19 20 20 20 24 23 24 19
14 12 12 12 11 9 8 7 7 6 5 6 5 4 5 6 8 10 11 10 11 10 11 12 15 16 18 17 18 20 19 19 18 17 19 19 19 20 20 22 22 26 19
13 12 12 12 10 10 9 8 8 8 5 5 5 5 5 6 7 12 14 10 9 12 9 10 15 18 20 21 20 20 20 21 21 20 20 21 21 22 22 22 21 21 18
13 12 12 11 9 8 9 9 9 9 6 7 8 8 7 7 6 10 13 11 12 13 12 14 16 17 18 18 19 20 21 22 22 20 20 20 21 21 24 23 22 21 20
11 11 11 11 10 10 8 6 7 6 7 8 9 10 9 8 7 9 9 13 17 14 15 15 16 16 16 16 16 17 19 20 19 20 21 22 21 21 22 22 23 25 22
12 13 11 11 10 9 7 5 5 6 7 8 8 10 10 10 11 10 10 12 14 17 16 16 15 15 15 16 16 16 18 19 20 21 21 22 23 22 22 22 22 23 24
12 10 9 10 10 8 7 5 6 6 8 10 11 11 10 10 12 14 16 14 14 15 14 15 14 14 14 14 14 15 16 18 19 20 21 22 23 23 23 23 22 22 22
9 11 12 12 10 7 5 5 6 6 8 9 8 8 7 6 10 12 13 13 14 12 13 14 14 14 14 14 14 15 16 18 19 20 20 21 22 22 23 23 23 22 22
11 12 13 11 9 6 5 6 6 8 8 8 8 9 8 10 10 10 11 12 12 11 12 12 12 13 14 15 15 15 15 17 18 19 20 21 21 22 22 22 22 22 23
10 13 11 10 8 6 7 7 9 9 8 9 11 13 10 9 10 10 10 11 11 11 11 11 12 13 14 14 15 15 15 16 17 19 19 20 20 21 21 21 22 23 23
11 12 10 9 7 8 9 9 10 9 10 11 13 11 8 9 9 9 9 10 9 10 10 11 12 13 14 14 14 15 15 15 15 16 17 18 19 20 19 21 21 22 23
12 11 10 9 8 9 9 9 9 10 11 12 11 9 8 7 7 8 8 8 8 9 9 11 12 14 15 15 15 15 16 17 15 13 15 16 17 18 18 19 19 20 22
9 10 9 8 8 8 10 9 10 11 12 11 10 10 8 7 7 7 7 8 8 8 10 11 11 12 14 16 16 17 17 17 17 15 14 15 16 17 17 17 19 18 20
10 10 9 9 8 8 10 11 12 13 13 12 11 8 7 7 6 6 7 7 7 9 9 9 10 12 13 14 17 18 18 18 17 17 15 15 16 17 17 17 18 17 18

GFSGL_925_spd_168.txt.gz
Wind_Speed
21 21 20 18 16 15 15 13 12 11 9 8 8 7 6 5 5 5 4 3 5 6 8 8 8 8 10 11 10 12 13 14 13 23 23 24 25 25 28 28 28 29 27
21 20 19 17 16 16 15 13 11 10 9 8 7 6 5 4 4 4 4 5 6 6 6 7 9 10 11 11 12 13 14 15 15 19 21 24 24 24 27 28 30 28 29
21 19 18 16 15 15 14 12 10 9 8 7 6 6 7 6 7 5 5 5 5 5 6 8 9 10 12 13 13 15 15 16 15 18 22 23 24 24 28 28 28 31 28
21 19 18 15 14 14 13 12 10 9 8 7 7 6 7 7 8 6 6 5 5 6 7 7 8 10 12 15 14 15 17 18 17 18 20 21 22 26 26 28 29 29 27
22 20 18 16 15 15 14 12 11 9 8 7 6 7 7 7 5 6 6 7 6 6 7 8 9 14 17 17 15 16 16 17 17 18 19 18 23 27 25 26 25 26 25
20 20 19 18 16 14 13 13 11 10 8 7 7 7 8 7 9 8 8 5 6 7 9 11 12 12 16 17 17 15 14 14 15 15 13 18 22 23 24 24 24 19 8
20 19 18 17 16 14 13 12 11 10 8 7 7 7 8 7 8 7 7 4 5 7 9 11 13 15 16 19 17 14 11 12 13 12 15 17 18 22 23 25 22 22 20
19 18 18 17 16 14 12 11 10 9 7 6 7 6 6 7 5 5 6 4 6 7 9 11 15 17 19 21 16 15 13 11 12 13 13 15 16 20 18 20 19 21 22
19 18 17 16 15 13 12 11 10 9 7 6 6 6 5 5 6 6 5 4 7 8 9 10 13 17 22 21 16 16 14 13 14 17 16 17 19 17 22 23 22 19 14
18 18 16 15 14 13 12 10 9 8 7 7 7 7 7 6 9 10 8 7 9 10 9 10 15 21 19 20 16 18 17 19 19 19 18 19 17 17 18 19 23 15 12
20 19 17 15 14 12 11 10 9 7 6 6 6 7 7 7 9 12 12 9 9 10 10 11 12 18 17 23 19 16 16 18 17 16 16 17 20 22 22 24 22 19 13
20 19 18 16 13 11 9 8 6 6 6 6 6 6 5 5 10 12 13 12 9 9 11 11 11 16 17 20 22 20 19 17 15 15 15 17 19 22 26 22 22 21 20
21 19 17 14 12 10 9 8 7 6 6 5 4 5 4 5 6 13 14 15 13 7 9 13 17 16 16 13 18 22 19 19 18 17 17 18 18 19 22 26 23 23 20
20 18 16 14 12 10 8 7 6 5 4 4 3 3 4 6 8 10 9 10 11 9 11 10 13 14 14 15 16 17 18 19 18 18 18 18 18 18 20 22 22 25 22
17 16 14 13 11 10 9 7 7 6 5 3 5 3 4 6 8 12 12 10 9 10 11 10 13 14 15 16 16 17 18 19 20 20 20 20 20 19 20 19 21 21 20
17 14 13 11 10 9 10 10 10 8 7 7 7 7 8 7 7 8 11 11 13 12 9 11 13 14 15 16 17 18 19 19 19 19 20 20 21 20 21 19 19 21 20
14 13 12 10 9 8 7 8 9 8 9 10 9 9 8 6 6 8 8 12 16 11 11 11 12 13 13 14 15 16 18 18 18 19 20 21 22 21 21 21 20 20 21
12 13 11 10 8 7 6 5 8 9 9 9 9 10 10 10 10 9 9 7 8 12 11 12 12 12 13 13 14 15 16 18 18 19 20 21 22 22 22 22 22 20 20
12 12 9 9 9 7 6 5 7 8 10 10 10 8 8 9 12 14 13 10 10 11 11 11 12 12 13 13 14 14 15 17 18 19 19 20 21 21 22 22 23 22 23
10 10 9 10 9 8 7 7 9 9 10 10 8 6 4 4 6 8 9 10 10 10 10 11 12 12 13 14 14 15 15 16 18 19 20 21 21 21 22 22 23 22 24
10 11 8 9 8 7 6 7 9 10 11 9 8 7 7 7 5 7 8 9 9 9 10 10 10 11 13 14 15 15 16 16 18 19 19 20 21 21 21 21 22 22 22
11 11 11 9 7 6 7 8 10 11 10 10 11 11 9 5 6 7 7 8 8 9 9 9 10 11 13 14 15 16 16 16 18 19 19 19 20 20 20 21 21 21 21
10 12 11 10 8 6 9 9 9 10 9 11 12 10 7 6 6 6 6 6 7 7 8 8 10 12 13 13 14 15 15 16 16 17 18 18 19 20 19 19 20 21 22
11 12 11 10 8 10 10 9 9 9 11 11 11 9 8 6 5 5 5 5 6 6 6 7 10 12 13 13 14 14 15 17 15 14 16 17 17 19 18 19 19 19 21
10 11 11 10 10 10 10 10 11 12 11 11 10 10 7 6 5 5 5 4 5 5 6 8 9 10 12 13 14 15 16 16 16 15 14 15 16 17 17 17 20 18 20
11 12 10 11 10 10 12 12 12 12 12 11 10 8 7 6 5 4 4 4 4 5 5 7 8 10 10 12 14 16 16 16 15 17 16 15 16 16 18 17 19 18 19

GFSGL_925_spd_171.txt.gz
Wind_Speed
24 23 22 20 18 16 16 15 13 12 11 10 10 9 9 8 8 7 8 8 9 9 8 9 9 10 12 13 14 14 17 18 15 22 23 25 24 25 29 30 30 33 29
26 24 22 19 18 17 15 13 12 11 11 10 9 8 7 7 7 7 8 8 8 9 8 9 11 13 14 14 16 17 17 16 17 18 21 24 24 24 26 29 30 30 31
26 24 21 19 17 16 15 12 11 11 11 10 9 8 8 9 8 8 8 8 8 8 8 10 11 14 15 17 18 18 19 19 19 20 21 21 24 25 27 28 29 29 26
25 22 21 19 17 15 14 13 12 10 10 9 9 9 10 9 8 8 8 7 7 8 8 9 9 13 15 17 18 18 18 20 20 20 20 20 22 27 24 26 27 28 27
24 22 20 18 17 15 14 14 11 10 9 9 9 10 8 7 4 8 6 7 7 8 9 10 11 11 19 18 18 18 16 18 19 20 20 19 21 25 23 26 25 26 28
24 22 20 18 16 16 13 13 12 10 9 9 9 9 9 8 7 7 7 7 8 9 10 12 13 12 16 20 19 12 17 16 15 16 16 18 21 22 25 24 23 23 8
23 21 19 17 16 15 14 13 11 10 9 10 10 9 9 8 7 7 6 6 7 9 10 11 13 15 15 20 16 16 16 9 9 16 15 17 18 21 21 22 24 23 21
22 20 18 17 16 16 15 13 12 10 9 10 9 9 8 7 5 5 6 6 6 7 7 8 11 15 19 20 15 14 16 9 12 14 18 17 15 19 20 24 19 21 20
21 19 18 17 16 15 15 13 11 10 9 9 9 8 7 6 5 4 5 4 6 6 7 9 10 14 19 21 14 15 15 15 16 17 17 10 17 17 22 27 25 23 15
21 19 18 17 16 15 14 13 11 10 9 9 9 7 7 6 8 8 6 7 6 8 6 9 15 20 17 20 16 16 15 16 17 20 15 14 17 17 22 24 24 17 18
22 20 18 17 16 15 13 12 11 9 9 8 8 6 6 6 9 13 12 9 8 10 11 12 12 18 16 20 18 16 16 20 19 15 16 19 18 20 23 25 24 24 18
23 21 19 17 15 14 13 11 9 9 9 7 7 7 5 4 10 13 16 14 11 8 10 11 13 16 16 13 17 19 19 17 16 16 16 16 17 18 20 21 21 26 20
24 22 19 17 15 13 12 11 9 7 8 9 10 6 5 4 6 12 12 12 13 7 9 9 14 13 16 13 15 19 18 18 18 18 19 19 18 18 16 19 20 21 15
25 21 19 17 15 13 11 9 9 6 2 5 4 4 3 6 7 9 8 9 9 9 10 9 11 11 9 12 14 16 17 18 18 18 19 20 20 20 19 17 18 24 19
23 21 18 17 15 14 14 12 11 10 9 6 9 6 6 7 6 11 11 10 10 8 12 9 11 12 12 13 14 16 17 19 19 19 20 20 21 22 21 20 17 19 19
23 20 18 17 15 14 13 12 12 10 7 7 8 9 8 8 6 7 12 12 12 11 8 10 12 12 13 14 15 17 18 20 20 20 20 21 22 22 22 21 21 19 14
20 20 17 16 15 14 13 13 12 10 9 10 9 8 7 6 6 7 8 8 16 11 10 10 11 12 13 14 14 16 17 18 18 19 20 21 21 21 22 22 22 24 21
20 19 17 15 13 11 9 11 10 9 9 8 9 9 9 10 10 8 8 6 8 9 10 10 11 12 13 14 15 15 16 18 19 19 20 21 21 22 22 23 23 23 23
20 17 15 14 12 11 10 12 10 9 8 10 8 7 6 10 10 12 11 9 9 9 9 10 10 12 13 14 14 15 16 18 18 19 20 20 21 21 22 22 22 20 23
14 16 14 13 12 11 10 12 10 10 9 9 7 6 4 1 2 6 8 8 8 8 8 9 10 11 13 14 14 16 16 17 18 19 19 20 21 20 21 21 22 23 22
15 14 11 12 12 11 9 9 10 11 10 10 7 6 6 4 4 6 7 7 7 7 8 9 10 11 12 14 15 16 16 16 18 19 19 20 21 21 21 21 21 22 21
14 15 12 11 10 9 9 10 9 11 11 11 9 8 7 4 4 5 6 7 7 7 8 9 10 11 12 14 16 16 16 16 17 18 19 20 20 20 20 20 21 21 22
13 14 13 11 9 8 9 10 10 10 11 11 11 9 6 5 4 5 6 6 6 6 7 9 10 12 13 13 14 15 15 16 15 18 17 20 19 21 20 20 21 21 22
12 13 12 11 10 10 10 9 10 12 12 11 10 8 7 5 5 4 5 6 6 7 7 8 10 12 13 13 13 13 15 17 15 15 17 17 18 19 19 19 20 20 21
11 11 11 9 8 8 9 11 10 11 12 12 10 9 8 7 6 5 5 6 6 7 8 9 9 10 11 13 14 15 15 14 15 17 15 16 17 17 18 18 20 19 20
8 6 7 8 7 8 11 12 12 12 12 11 11 9 8 6 6 6 5 6 6 6 7 7 8 9 9 11 13 14 14 13 13 15 17 15 17 16 18 18 19 18 19